{"data":{"norad_id":62042,"epoch":"2026-05-24T12:39:14.039712Z","epoch_age_seconds":125960,"freshness":"FRESH","line1":"1 62042U 24216L   26144.52724583  .00020907  00000+0  76683-3 0  9992","line2":"2 62042  43.0004 188.0641 0001666 273.6146  86.4515 15.27591602 85474","mean_motion":15.27591602,"eccentricity":0.0001666,"inclination_deg":43.0004,"raan_deg":188.0641,"arg_perigee_deg":273.6146,"mean_anomaly_deg":86.4515,"bstar":0.00076683,"rev_number":8547,"period_min":94.266032761288,"perigee_km":481.87128788187,"apogee_km":484.15742351359,"semimajor_km":6861.1513556977,"source":"CELESTRAK","updated_at":"2026-05-25T13:38:19.525780Z"}}